owner,sensor,date,latitude,longitude,vertical_datum,sea_water_temperature,qcFlag 
NERRS,ioos:station:NOAA.NERRS:gndblwq:1,2014-05-01T00:00:00Z,30.3571,-88.4629,0.0,24.5,2 
NERRS,ioos:station:NOAA.NERRS:gndblwq:1,2014-05-01T01:00:00Z,30.3571,-88.4629,0.0,24.3,2 
NERRS,ioos:station:NOAA.NERRS:gndblwq:1,2014-05-01T02:00:00Z,30.3571,-88.4629,0.0,24.1,2 
NERRS,ioos:station:NOAA.NERRS:gndblwq:1,2014-05-01T03:00:00Z,30.3571,-88.4629,0.0,23.5,2 
NERRS,ioos:station:NOAA.NERRS:gndblwq:1,2014-05-01T04:00:00Z,30.3571,-88.4629,0.0,22.9,2 
NERRS,ioos:station:NOAA.NERRS:gndblwq:1,2014-05-01T05:00:00Z,30.3571,-88.4629,0.0,23.1,2 
NERRS,ioos:station:NOAA.NERRS:gndblwq:1,2014-05-01T06:00:00Z,30.3571,-88.4629,0.0,22.9,2 
NERRS,ioos:station:NOAA.NERRS:gndblwq:1,2014-05-01T07:00:00Z,30.3571,-88.4629,0.0,22.5,2 
NERRS,ioos:station:NOAA.NERRS:gndblwq:1,2014-05-01T08:00:00Z,30.3571,-88.4629,0.0,22.2,2 
NERRS,ioos:station:NOAA.NERRS:gndblwq:1,2014-05-01T09:00:00Z,30.3571,-88.4629,0.0,22.1,2 
NERRS,ioos:station:NOAA.NERRS:gndblwq:1,2014-05-01T10:00:00Z,30.3571,-88.4629,0.0,21.4,2 
NERRS,ioos:station:NOAA.NERRS:gndblwq:1,2014-05-01T11:00:00Z,30.3571,-88.4629,0.0,21.5,2 
NERRS,ioos:station:NOAA.NERRS:gndblwq:1,2014-05-01T12:00:00Z,30.3571,-88.4629,0.0,20.4,2 
NERRS,ioos:station:NOAA.NERRS:gndblwq:1,2014-05-01T13:00:00Z,30.3571,-88.4629,0.0,20.8,2 
NERRS,ioos:station:NOAA.NERRS:gndblwq:1,2014-05-01T14:00:00Z,30.3571,-88.4629,0.0,21.9,2 
NERRS,ioos:station:NOAA.NERRS:gndblwq:1,2014-05-01T15:00:00Z,30.3571,-88.4629,0.0,22.1,2 
NERRS,ioos:station:NOAA.NERRS:gndblwq:1,2014-05-01T16:00:00Z,30.3571,-88.4629,0.0,21.8,2 
NERRS,ioos:station:NOAA.NERRS:gndblwq:1,2014-05-01T17:00:00Z,30.3571,-88.4629,0.0,21.9,2 
NERRS,ioos:station:NOAA.NERRS:gndblwq:1,2014-05-01T18:00:00Z,30.3571,-88.4629,0.0,21.9,2 
NERRS,ioos:station:NOAA.NERRS:gndblwq:1,2014-05-01T19:00:00Z,30.3571,-88.4629,0.0,22.0,2 
NERRS,ioos:station:NOAA.NERRS:gndblwq:1,2014-05-01T20:00:00Z,30.3571,-88.4629,0.0,22.9,2 
NERRS,ioos:station:NOAA.NERRS:gndblwq:1,2014-05-01T21:00:00Z,30.3571,-88.4629,0.0,22.1,2 
NERRS,ioos:station:NOAA.NERRS:gndblwq:1,2014-05-01T22:00:00Z,30.3571,-88.4629,0.0,22.9,2 
NERRS,ioos:station:NOAA.NERRS:gndblwq:1,2014-05-01T23:00:00Z,30.3571,-88.4629,0.0,22.9,2 
NERRS,ioos:station:NOAA.NERRS:gndblwq:1,2014-05-02T00:00:00Z,30.3571,-88.4629,0.0,22.8,2 
NERRS,ioos:station:NOAA.NERRS:gndblwq:1,2014-05-02T01:00:00Z,30.3571,-88.4629,0.0,22.5,2 
NERRS,ioos:station:NOAA.NERRS:gndblwq:1,2014-05-02T02:00:00Z,30.3571,-88.4629,0.0,22.2,2 
NERRS,ioos:station:NOAA.NERRS:gndblwq:1,2014-05-02T03:00:00Z,30.3571,-88.4629,0.0,21.8,2 
NERRS,ioos:station:NOAA.NERRS:gndblwq:1,2014-05-02T05:00:00Z,30.3571,-88.4629,0.0,21.5,2 
NERRS,ioos:station:NOAA.NERRS:gndblwq:1,2014-05-02T06:00:00Z,30.3571,-88.4629,0.0,21.7,2 
NERRS,ioos:station:NOAA.NERRS:gndblwq:1,2014-05-02T07:00:00Z,30.3571,-88.4629,0.0,21.5,2 
NERRS,ioos:station:NOAA.NERRS:gndblwq:1,2014-05-02T08:00:00Z,30.3571,-88.4629,0.0,21.6,2 
NERRS,ioos:station:NOAA.NERRS:gndblwq:1,2014-05-02T09:00:00Z,30.3571,-88.4629,0.0,21.4,2 
NERRS,ioos:station:NOAA.NERRS:gndblwq:1,2014-05-02T10:00:00Z,30.3571,-88.4629,0.0,21.5,2 
NERRS,ioos:station:NOAA.NERRS:gndblwq:1,2014-05-02T11:00:00Z,30.3571,-88.4629,0.0,21.6,2 
NERRS,ioos:station:NOAA.NERRS:gndblwq:1,2014-05-02T12:00:00Z,30.3571,-88.4629,0.0,21.6,2 
NERRS,ioos:station:NOAA.NERRS:gndblwq:1,2014-05-02T13:00:00Z,30.3571,-88.4629,0.0,22.3,2 
NERRS,ioos:station:NOAA.NERRS:gndblwq:1,2014-05-02T14:00:00Z,30.3571,-88.4629,0.0,21.9,2 
NERRS,ioos:station:NOAA.NERRS:gndblwq:1,2014-05-02T15:00:00Z,30.3571,-88.4629,0.0,21.6,2 
NERRS,ioos:station:NOAA.NERRS:gndblwq:1,2014-05-02T16:00:00Z,30.3571,-88.4629,0.0,21.9,2 
NERRS,ioos:station:NOAA.NERRS:gndblwq:1,2014-05-02T17:00:00Z,30.3571,-88.4629,0.0,21.9,2 
NERRS,ioos:station:NOAA.NERRS:gndblwq:1,2014-05-02T18:00:00Z,30.3571,-88.4629,0.0,21.9,2 
NERRS,ioos:station:NOAA.NERRS:gndblwq:1,2014-05-02T19:00:00Z,30.3571,-88.4629,0.0,23.0,2 
NERRS,ioos:station:NOAA.NERRS:gndblwq:1,2014-05-02T20:00:00Z,30.3571,-88.4629,0.0,24.0,2 
NERRS,ioos:station:NOAA.NERRS:gndblwq:1,2014-05-02T21:00:00Z,30.3571,-88.4629,0.0,23.7,2 
NERRS,ioos:station:NOAA.NERRS:gndblwq:1,2014-05-02T22:00:00Z,30.3571,-88.4629,0.0,23.6,2 
NERRS,ioos:station:NOAA.NERRS:gndblwq:1,2014-05-02T23:00:00Z,30.3571,-88.4629,0.0,23.3,2 
NERRS,ioos:station:NOAA.NERRS:gndblwq:1,2014-05-03T00:00:00Z,30.3571,-88.4629,0.0,23.1,2 
NERRS,ioos:station:NOAA.NERRS:gndblwq:1,2014-05-03T01:00:00Z,30.3571,-88.4629,0.0,22.9,2 
NERRS,ioos:station:NOAA.NERRS:gndblwq:1,2014-05-03T02:00:00Z,30.3571,-88.4629,0.0,22.7,2 
NERRS,ioos:station:NOAA.NERRS:gndblwq:1,2014-05-03T03:00:00Z,30.3571,-88.4629,0.0,22.8,2 
NERRS,ioos:station:NOAA.NERRS:gndblwq:1,2014-05-03T05:00:00Z,30.3571,-88.4629,0.0,22.2,2 
NERRS,ioos:station:NOAA.NERRS:gndblwq:1,2014-05-03T06:00:00Z,30.3571,-88.4629,0.0,22.1,2 
NERRS,ioos:station:NOAA.NERRS:gndblwq:1,2014-05-03T07:00:00Z,30.3571,-88.4629,0.0,21.9,2 
NERRS,ioos:station:NOAA.NERRS:gndblwq:1,2014-05-03T08:00:00Z,30.3571,-88.4629,0.0,21.6,2 
NERRS,ioos:station:NOAA.NERRS:gndblwq:1,2014-05-03T09:00:00Z,30.3571,-88.4629,0.0,21.9,2 
NERRS,ioos:station:NOAA.NERRS:gndblwq:1,2014-05-03T10:00:00Z,30.3571,-88.4629,0.0,21.3,2 
NERRS,ioos:station:NOAA.NERRS:gndblwq:1,2014-05-03T11:00:00Z,30.3571,-88.4629,0.0,21.9,2 
NERRS,ioos:station:NOAA.NERRS:gndblwq:1,2014-05-03T12:00:00Z,30.3571,-88.4629,0.0,21.5,2 
NERRS,ioos:station:NOAA.NERRS:gndblwq:1,2014-05-03T13:00:00Z,30.3571,-88.4629,0.0,23.0,2 
NERRS,ioos:station:NOAA.NERRS:gndblwq:1,2014-05-03T14:00:00Z,30.3571,-88.4629,0.0,22.2,2 
NERRS,ioos:station:NOAA.NERRS:gndblwq:1,2014-05-03T15:00:00Z,30.3571,-88.4629,0.0,22.3,2 
NERRS,ioos:station:NOAA.NERRS:gndblwq:1,2014-05-03T16:00:00Z,30.3571,-88.4629,0.0,22.4,2 
NERRS,ioos:station:NOAA.NERRS:gndblwq:1,2014-05-03T17:00:00Z,30.3571,-88.4629,0.0,22.6,2 
NERRS,ioos:station:NOAA.NERRS:gndblwq:1,2014-05-03T18:00:00Z,30.3571,-88.4629,0.0,23.7,2 
NERRS,ioos:station:NOAA.NERRS:gndblwq:1,2014-05-03T19:00:00Z,30.3571,-88.4629,0.0,24.3,2 
NERRS,ioos:station:NOAA.NERRS:gndblwq:1,2014-05-03T20:00:00Z,30.3571,-88.4629,0.0,24.2,2 
NERRS,ioos:station:NOAA.NERRS:gndblwq:1,2014-05-03T21:00:00Z,30.3571,-88.4629,0.0,24.4,2 
NERRS,ioos:station:NOAA.NERRS:gndblwq:1,2014-05-03T22:00:00Z,30.3571,-88.4629,0.0,24.7,2 
NERRS,ioos:station:NOAA.NERRS:gndblwq:1,2014-05-03T23:00:00Z,30.3571,-88.4629,0.0,24.5,2 
NERRS,ioos:station:NOAA.NERRS:gndblwq:1,2014-05-04T00:00:00Z,30.3571,-88.4629,0.0,24.3,2 
NERRS,ioos:station:NOAA.NERRS:gndblwq:1,2014-05-04T01:00:00Z,30.3571,-88.4629,0.0,24.2,2 
NERRS,ioos:station:NOAA.NERRS:gndblwq:1,2014-05-04T02:00:00Z,30.3571,-88.4629,0.0,23.8,2 
NERRS,ioos:station:NOAA.NERRS:gndblwq:1,2014-05-04T05:00:00Z,30.3571,-88.4629,0.0,22.9,2 
NERRS,ioos:station:NOAA.NERRS:gndblwq:1,2014-05-04T06:00:00Z,30.3571,-88.4629,0.0,22.7,2 
NERRS,ioos:station:NOAA.NERRS:gndblwq:1,2014-05-04T07:00:00Z,30.3571,-88.4629,0.0,22.4,2 
NERRS,ioos:station:NOAA.NERRS:gndblwq:1,2014-05-04T08:00:00Z,30.3571,-88.4629,0.0,22.2,2 
NERRS,ioos:station:NOAA.NERRS:gndblwq:1,2014-05-04T09:00:00Z,30.3571,-88.4629,0.0,21.4,2 
NERRS,ioos:station:NOAA.NERRS:gndblwq:1,2014-05-04T10:00:00Z,30.3571,-88.4629,0.0,21.1,2 
NERRS,ioos:station:NOAA.NERRS:gndblwq:1,2014-05-04T13:00:00Z,30.3571,-88.4629,0.0,21.8,2 
NERRS,ioos:station:NOAA.NERRS:gndblwq:1,2014-05-04T14:00:00Z,30.3571,-88.4629,0.0,23.1,2 
NERRS,ioos:station:NOAA.NERRS:gndblwq:1,2014-05-04T15:00:00Z,30.3571,-88.4629,0.0,23.5,2 
NERRS,ioos:station:NOAA.NERRS:gndblwq:1,2014-05-04T16:00:00Z,30.3571,-88.4629,0.0,23.5,2 
NERRS,ioos:station:NOAA.NERRS:gndblwq:1,2014-05-04T17:00:00Z,30.3571,-88.4629,0.0,23.3,2 
NERRS,ioos:station:NOAA.NERRS:gndblwq:1,2014-05-04T18:00:00Z,30.3571,-88.4629,0.0,23.5,2 
NERRS,ioos:station:NOAA.NERRS:gndblwq:1,2014-05-04T20:00:00Z,30.3571,-88.4629,0.0,25.7,2 
NERRS,ioos:station:NOAA.NERRS:gndblwq:1,2014-05-04T22:00:00Z,30.3571,-88.4629,0.0,26.7,2 
NERRS,ioos:station:NOAA.NERRS:gndblwq:1,2014-05-05T01:00:00Z,30.3571,-88.4629,0.0,26.0,2 
NERRS,ioos:station:NOAA.NERRS:gndblwq:1,2014-05-05T02:00:00Z,30.3571,-88.4629,0.0,25.7,2 
NERRS,ioos:station:NOAA.NERRS:gndblwq:1,2014-05-05T04:00:00Z,30.3571,-88.4629,0.0,24.8,2 
NERRS,ioos:station:NOAA.NERRS:gndblwq:1,2014-05-05T05:00:00Z,30.3571,-88.4629,0.0,24.4,2 
NERRS,ioos:station:NOAA.NERRS:gndblwq:1,2014-05-05T06:00:00Z,30.3571,-88.4629,0.0,24.0,2 
NERRS,ioos:station:NOAA.NERRS:gndblwq:1,2014-05-05T07:00:00Z,30.3571,-88.4629,0.0,23.9,2 
NERRS,ioos:station:NOAA.NERRS:gndblwq:1,2014-05-05T08:00:00Z,30.3571,-88.4629,0.0,23.6,2 
NERRS,ioos:station:NOAA.NERRS:gndblwq:1,2014-05-05T09:00:00Z,30.3571,-88.4629,0.0,23.6,2 
NERRS,ioos:station:NOAA.NERRS:gndblwq:1,2014-05-05T10:00:00Z,30.3571,-88.4629,0.0,23.1,2 
NERRS,ioos:station:NOAA.NERRS:gndblwq:1,2014-05-05T11:00:00Z,30.3571,-88.4629,0.0,23.5,2 
NERRS,ioos:station:NOAA.NERRS:gndblwq:1,2014-05-05T12:00:00Z,30.3571,-88.4629,0.0,23.7,2 
NERRS,ioos:station:NOAA.NERRS:gndblwq:1,2014-05-05T13:00:00Z,30.3571,-88.4629,0.0,23.3,2 
NERRS,ioos:station:NOAA.NERRS:gndblwq:1,2014-05-05T15:00:00Z,30.3571,-88.4629,0.0,24.5,2 
NERRS,ioos:station:NOAA.NERRS:gndblwq:1,2014-05-05T16:00:00Z,30.3571,-88.4629,0.0,24.5,2 
NERRS,ioos:station:NOAA.NERRS:gndblwq:1,2014-05-05T17:00:00Z,30.3571,-88.4629,0.0,24.3,2 
NERRS,ioos:station:NOAA.NERRS:gndblwq:1,2014-05-05T18:00:00Z,30.3571,-88.4629,0.0,24.5,2 
NERRS,ioos:station:NOAA.NERRS:gndblwq:1,2014-05-05T19:00:00Z,30.3571,-88.4629,0.0,25.2,2 
NERRS,ioos:station:NOAA.NERRS:gndblwq:1,2014-05-06T01:00:00Z,30.3571,-88.4629,0.0,26.6,2 
NERRS,ioos:station:NOAA.NERRS:gndblwq:1,2014-05-06T03:00:00Z,30.3571,-88.4629,0.0,25.9,2 
NERRS,ioos:station:NOAA.NERRS:gndblwq:1,2014-05-06T05:00:00Z,30.3571,-88.4629,0.0,25.1,2 
NERRS,ioos:station:NOAA.NERRS:gndblwq:1,2014-05-06T06:00:00Z,30.3571,-88.4629,0.0,24.8,2 
NERRS,ioos:station:NOAA.NERRS:gndblwq:1,2014-05-06T07:00:00Z,30.3571,-88.4629,0.0,24.4,2 
NERRS,ioos:station:NOAA.NERRS:gndblwq:1,2014-05-06T09:00:00Z,30.3571,-88.4629,0.0,24.2,2 
NERRS,ioos:station:NOAA.NERRS:gndblwq:1,2014-05-06T10:00:00Z,30.3571,-88.4629,0.0,23.9,2 
NERRS,ioos:station:NOAA.NERRS:gndblwq:1,2014-05-06T16:00:00Z,30.3571,-88.4629,0.0,24.6,2 
NERRS,ioos:station:NOAA.NERRS:gndblwq:1,2014-05-06T17:00:00Z,30.3571,-88.4629,0.0,25.5,2 
NERRS,ioos:station:NOAA.NERRS:gndblwq:1,2014-05-06T18:00:00Z,30.3571,-88.4629,0.0,26.1,2 
NERRS,ioos:station:NOAA.NERRS:gndblwq:1,2014-05-06T23:00:00Z,30.3571,-88.4629,0.0,27.0,2 
NERRS,ioos:station:NOAA.NERRS:gndblwq:1,2014-05-07T01:00:00Z,30.3571,-88.4629,0.0,26.6,2 
NERRS,ioos:station:NOAA.NERRS:gndblwq:1,2014-05-07T03:00:00Z,30.3571,-88.4629,0.0,26.2,2 
NERRS,ioos:station:NOAA.NERRS:gndblwq:1,2014-05-07T05:00:00Z,30.3571,-88.4629,0.0,25.7,2 
NERRS,ioos:station:NOAA.NERRS:gndblwq:1,2014-05-07T06:00:00Z,30.3571,-88.4629,0.0,25.2,2 
NERRS,ioos:station:NOAA.NERRS:gndblwq:1,2014-05-07T07:00:00Z,30.3571,-88.4629,0.0,24.8,2 
NERRS,ioos:station:NOAA.NERRS:gndblwq:1,2014-05-07T14:00:00Z,30.3571,-88.4629,0.0,24.9,2 
NERRS,ioos:station:NOAA.NERRS:gndblwq:1,2014-05-07T15:00:00Z,30.3571,-88.4629,0.0,24.5,2 
NERRS,ioos:station:NOAA.NERRS:gndblwq:1,2014-05-07T16:00:00Z,30.3571,-88.4629,0.0,25.0,2 
NERRS,ioos:station:NOAA.NERRS:gndblwq:1,2014-05-07T19:00:00Z,30.3571,-88.4629,0.0,26.1,2 
NERRS,ioos:station:NOAA.NERRS:gndblwq:1,2014-05-07T21:00:00Z,30.3571,-88.4629,0.0,26.1,2 
NERRS,ioos:station:NOAA.NERRS:gndblwq:1,2014-05-08T05:00:00Z,30.3571,-88.4629,0.0,26.0,2 
NERRS,ioos:station:NOAA.NERRS:gndblwq:1,2014-05-08T06:00:00Z,30.3571,-88.4629,0.0,25.8,2 
NERRS,ioos:station:NOAA.NERRS:gndblwq:1,2014-05-08T07:00:00Z,30.3571,-88.4629,0.0,25.7,2 
NERRS,ioos:station:NOAA.NERRS:gndblwq:1,2014-05-08T08:00:00Z,30.3571,-88.4629,0.0,25.1,2 
NERRS,ioos:station:NOAA.NERRS:gndblwq:1,2014-05-08T09:00:00Z,30.3571,-88.4629,0.0,24.9,2 
NERRS,ioos:station:NOAA.NERRS:gndblwq:1,2014-05-08T10:00:00Z,30.3571,-88.4629,0.0,24.9,2 
NERRS,ioos:station:NOAA.NERRS:gndblwq:1,2014-05-08T13:00:00Z,30.3571,-88.4629,0.0,25.2,2 
NERRS,ioos:station:NOAA.NERRS:gndblwq:1,2014-05-08T14:00:00Z,30.3571,-88.4629,0.0,25.5,2 
NERRS,ioos:station:NOAA.NERRS:gndblwq:1,2014-05-08T16:00:00Z,30.3571,-88.4629,0.0,25.8,2 
NERRS,ioos:station:NOAA.NERRS:gndblwq:1,2014-05-09T05:00:00Z,30.3571,-88.4629,0.0,26.8,2 
NERRS,ioos:station:NOAA.NERRS:gndblwq:1,2014-05-09T06:00:00Z,30.3571,-88.4629,0.0,26.6,2 
NERRS,ioos:station:NOAA.NERRS:gndblwq:1,2014-05-09T07:00:00Z,30.3571,-88.4629,0.0,26.2,2 
NERRS,ioos:station:NOAA.NERRS:gndblwq:1,2014-05-09T08:00:00Z,30.3571,-88.4629,0.0,26.1,2 
NERRS,ioos:station:NOAA.NERRS:gndblwq:1,2014-05-09T09:00:00Z,30.3571,-88.4629,0.0,26.3,2 
NERRS,ioos:station:NOAA.NERRS:gndblwq:1,2014-05-09T10:00:00Z,30.3571,-88.4629,0.0,26.0,2 
NERRS,ioos:station:NOAA.NERRS:gndblwq:1,2014-05-09T12:00:00Z,30.3571,-88.4629,0.0,25.9,2 
NERRS,ioos:station:NOAA.NERRS:gndblwq:1,2014-05-09T13:00:00Z,30.3571,-88.4629,0.0,25.7,2 
NERRS,ioos:station:NOAA.NERRS:gndblwq:1,2014-05-09T14:00:00Z,30.3571,-88.4629,0.0,26.0,2 
NERRS,ioos:station:NOAA.NERRS:gndblwq:1,2014-05-09T15:00:00Z,30.3571,-88.4629,0.0,26.0,2 
NERRS,ioos:station:NOAA.NERRS:gndblwq:1,2014-05-09T16:00:00Z,30.3571,-88.4629,0.0,26.1,2 
NERRS,ioos:station:NOAA.NERRS:gndblwq:1,2014-05-09T17:00:00Z,30.3571,-88.4629,0.0,26.0,2 
NERRS,ioos:station:NOAA.NERRS:gndblwq:1,2014-05-09T18:00:00Z,30.3571,-88.4629,0.0,25.9,2 
NERRS,ioos:station:NOAA.NERRS:gndblwq:1,2014-05-09T19:00:00Z,30.3571,-88.4629,0.0,25.9,2 
NERRS,ioos:station:NOAA.NERRS:gndblwq:1,2014-05-09T20:00:00Z,30.3571,-88.4629,0.0,26.0,2 
NERRS,ioos:station:NOAA.NERRS:gndblwq:1,2014-05-09T23:00:00Z,30.3571,-88.4629,0.0,26.1,2 
NERRS,ioos:station:NOAA.NERRS:gndblwq:1,2014-05-10T00:00:00Z,30.3571,-88.4629,0.0,26.0,2 
NERRS,ioos:station:NOAA.NERRS:gndblwq:1,2014-05-10T01:00:00Z,30.3571,-88.4629,0.0,25.9,2 
NERRS,ioos:station:NOAA.NERRS:gndblwq:1,2014-05-10T02:00:00Z,30.3571,-88.4629,0.0,25.8,2 
NERRS,ioos:station:NOAA.NERRS:gndblwq:1,2014-05-10T03:00:00Z,30.3571,-88.4629,0.0,25.5,2 
NERRS,ioos:station:NOAA.NERRS:gndblwq:1,2014-05-10T05:00:00Z,30.3571,-88.4629,0.0,25.3,2 
NERRS,ioos:station:NOAA.NERRS:gndblwq:1,2014-05-10T06:00:00Z,30.3571,-88.4629,0.0,25.5,2 
NERRS,ioos:station:NOAA.NERRS:gndblwq:1,2014-05-10T07:00:00Z,30.3571,-88.4629,0.0,25.0,2 
NERRS,ioos:station:NOAA.NERRS:gndblwq:1,2014-05-10T08:00:00Z,30.3571,-88.4629,0.0,24.6,2 
NERRS,ioos:station:NOAA.NERRS:gndblwq:1,2014-05-10T09:00:00Z,30.3571,-88.4629,0.0,24.4,2 
NERRS,ioos:station:NOAA.NERRS:gndblwq:1,2014-05-10T10:00:00Z,30.3571,-88.4629,0.0,23.9,2 
NERRS,ioos:station:NOAA.NERRS:gndblwq:1,2014-05-10T11:00:00Z,30.3571,-88.4629,0.0,24.7,2 
NERRS,ioos:station:NOAA.NERRS:gndblwq:1,2014-05-10T12:00:00Z,30.3571,-88.4629,0.0,24.6,2 
NERRS,ioos:station:NOAA.NERRS:gndblwq:1,2014-05-10T13:00:00Z,30.3571,-88.4629,0.0,24.2,2 
NERRS,ioos:station:NOAA.NERRS:gndblwq:1,2014-05-10T14:00:00Z,30.3571,-88.4629,0.0,24.5,2 
NERRS,ioos:station:NOAA.NERRS:gndblwq:1,2014-05-10T15:00:00Z,30.3571,-88.4629,0.0,24.6,2 
NERRS,ioos:station:NOAA.NERRS:gndblwq:1,2014-05-10T16:00:00Z,30.3571,-88.4629,0.0,25.0,2 
NERRS,ioos:station:NOAA.NERRS:gndblwq:1,2014-05-10T17:00:00Z,30.3571,-88.4629,0.0,25.3,2 
NERRS,ioos:station:NOAA.NERRS:gndblwq:1,2014-05-10T18:00:00Z,30.3571,-88.4629,0.0,25.6,2 
NERRS,ioos:station:NOAA.NERRS:gndblwq:1,2014-05-10T19:00:00Z,30.3571,-88.4629,0.0,26.2,2 
NERRS,ioos:station:NOAA.NERRS:gndblwq:1,2014-05-10T23:00:00Z,30.3571,-88.4629,0.0,26.9,2 
NERRS,ioos:station:NOAA.NERRS:gndblwq:1,2014-05-11T04:00:00Z,30.3571,-88.4629,0.0,26.4,2 
NERRS,ioos:station:NOAA.NERRS:gndblwq:1,2014-05-11T05:00:00Z,30.3571,-88.4629,0.0,26.3,2 
NERRS,ioos:station:NOAA.NERRS:gndblwq:1,2014-05-11T06:00:00Z,30.3571,-88.4629,0.0,26.0,2 
NERRS,ioos:station:NOAA.NERRS:gndblwq:1,2014-05-11T07:00:00Z,30.3571,-88.4629,0.0,26.0,2 
NERRS,ioos:station:NOAA.NERRS:gndblwq:1,2014-05-11T08:00:00Z,30.3571,-88.4629,0.0,25.8,2 
NERRS,ioos:station:NOAA.NERRS:gndblwq:1,2014-05-11T09:00:00Z,30.3571,-88.4629,0.0,25.8,2 
NERRS,ioos:station:NOAA.NERRS:gndblwq:1,2014-05-11T11:00:00Z,30.3571,-88.4629,0.0,26.0,2 
NERRS,ioos:station:NOAA.NERRS:gndblwq:1,2014-05-11T12:00:00Z,30.3571,-88.4629,0.0,25.8,2 
NERRS,ioos:station:NOAA.NERRS:gndblwq:1,2014-05-11T13:00:00Z,30.3571,-88.4629,0.0,25.7,2 
NERRS,ioos:station:NOAA.NERRS:gndblwq:1,2014-05-11T14:00:00Z,30.3571,-88.4629,0.0,26.0,2 
NERRS,ioos:station:NOAA.NERRS:gndblwq:1,2014-05-11T17:00:00Z,30.3571,-88.4629,0.0,26.8,2 
NERRS,ioos:station:NOAA.NERRS:gndblwq:1,2014-05-12T14:00:00Z,30.3571,-88.4629,0.0,26.6,2 
NERRS,ioos:station:NOAA.NERRS:gndblwq:1,2014-05-12T15:00:00Z,30.3571,-88.4629,0.0,26.8,2 
NERRS,ioos:station:NOAA.NERRS:gndblwq:1,2014-05-12T16:00:00Z,30.3571,-88.4629,0.0,26.9,2 
NERRS,ioos:station:NOAA.NERRS:gndblwq:1,2014-05-12T17:00:00Z,30.3571,-88.4629,0.0,27.1,2 
NERRS,ioos:station:NOAA.NERRS:gndblwq:1,2014-05-12T18:00:00Z,30.3571,-88.4629,0.0,28.0,2 
NERRS,ioos:station:NOAA.NERRS:gndblwq:1,2014-05-12T19:00:00Z,30.3571,-88.4629,0.0,28.3,2 
NERRS,ioos:station:NOAA.NERRS:gndblwq:1,2014-05-12T20:00:00Z,30.3571,-88.4629,0.0,29.1,2 
NERRS,ioos:station:NOAA.NERRS:gndblwq:1,2014-05-12T21:00:00Z,30.3571,-88.4629,0.0,29.5,2 
NERRS,ioos:station:NOAA.NERRS:gndblwq:1,2014-05-12T22:00:00Z,30.3571,-88.4629,0.0,29.6,2 
NERRS,ioos:station:NOAA.NERRS:gndblwq:1,2014-05-12T23:00:00Z,30.3571,-88.4629,0.0,29.4,2 
NERRS,ioos:station:NOAA.NERRS:gndblwq:1,2014-05-13T00:00:00Z,30.3571,-88.4629,0.0,29.4,2 
NERRS,ioos:station:NOAA.NERRS:gndblwq:1,2014-05-13T01:00:00Z,30.3571,-88.4629,0.0,29.2,2 
NERRS,ioos:station:NOAA.NERRS:gndblwq:1,2014-05-13T02:00:00Z,30.3571,-88.4629,0.0,28.8,2 
NERRS,ioos:station:NOAA.NERRS:gndblwq:1,2014-05-13T03:00:00Z,30.3571,-88.4629,0.0,28.8,2 
NERRS,ioos:station:NOAA.NERRS:gndblwq:1,2014-05-13T04:00:00Z,30.3571,-88.4629,0.0,28.5,2 
NERRS,ioos:station:NOAA.NERRS:gndblwq:1,2014-05-13T05:00:00Z,30.3571,-88.4629,0.0,28.6,2 
NERRS,ioos:station:NOAA.NERRS:gndblwq:1,2014-05-13T06:00:00Z,30.3571,-88.4629,0.0,28.2,2 
NERRS,ioos:station:NOAA.NERRS:gndblwq:1,2014-05-13T07:00:00Z,30.3571,-88.4629,0.0,27.7,2 
NERRS,ioos:station:NOAA.NERRS:gndblwq:1,2014-05-13T08:00:00Z,30.3571,-88.4629,0.0,27.6,2 
NERRS,ioos:station:NOAA.NERRS:gndblwq:1,2014-05-13T09:00:00Z,30.3571,-88.4629,0.0,27.5,2 
NERRS,ioos:station:NOAA.NERRS:gndblwq:1,2014-05-13T10:00:00Z,30.3571,-88.4629,0.0,27.3,2 
NERRS,ioos:station:NOAA.NERRS:gndblwq:1,2014-05-13T11:00:00Z,30.3571,-88.4629,0.0,27.1,2 
NERRS,ioos:station:NOAA.NERRS:gndblwq:1,2014-05-13T12:00:00Z,30.3571,-88.4629,0.0,26.9,2 
NERRS,ioos:station:NOAA.NERRS:gndblwq:1,2014-05-13T13:00:00Z,30.3571,-88.4629,0.0,27.1,2 
NERRS,ioos:station:NOAA.NERRS:gndblwq:1,2014-05-13T15:00:00Z,30.3571,-88.4629,0.0,27.3,2 
NERRS,ioos:station:NOAA.NERRS:gndblwq:1,2014-05-13T16:00:00Z,30.3571,-88.4629,0.0,27.4,2 
NERRS,ioos:station:NOAA.NERRS:gndblwq:1,2014-05-13T17:00:00Z,30.3571,-88.4629,0.0,27.4,2 
NERRS,ioos:station:NOAA.NERRS:gndblwq:1,2014-05-13T18:00:00Z,30.3571,-88.4629,0.0,28.5,2 
NERRS,ioos:station:NOAA.NERRS:gndblwq:1,2014-05-13T19:00:00Z,30.3571,-88.4629,0.0,28.8,2 
NERRS,ioos:station:NOAA.NERRS:gndblwq:1,2014-05-13T20:00:00Z,30.3571,-88.4629,0.0,29.3,2 
NERRS,ioos:station:NOAA.NERRS:gndblwq:1,2014-05-13T21:00:00Z,30.3571,-88.4629,0.0,29.6,2 
NERRS,ioos:station:NOAA.NERRS:gndblwq:1,2014-05-13T22:00:00Z,30.3571,-88.4629,0.0,29.7,2 
NERRS,ioos:station:NOAA.NERRS:gndblwq:1,2014-05-13T23:00:00Z,30.3571,-88.4629,0.0,29.8,2 
NERRS,ioos:station:NOAA.NERRS:gndblwq:1,2014-05-14T00:00:00Z,30.3571,-88.4629,0.0,29.3,2 
NERRS,ioos:station:NOAA.NERRS:gndblwq:1,2014-05-14T01:00:00Z,30.3571,-88.4629,0.0,28.9,2 
NERRS,ioos:station:NOAA.NERRS:gndblwq:1,2014-05-14T02:00:00Z,30.3571,-88.4629,0.0,28.6,2 
NERRS,ioos:station:NOAA.NERRS:gndblwq:1,2014-05-14T03:00:00Z,30.3571,-88.4629,0.0,28.2,2 
NERRS,ioos:station:NOAA.NERRS:gndblwq:1,2014-05-14T04:00:00Z,30.3571,-88.4629,0.0,28.5,2 
NERRS,ioos:station:NOAA.NERRS:gndblwq:1,2014-05-14T05:00:00Z,30.3571,-88.4629,0.0,28.6,2 
NERRS,ioos:station:NOAA.NERRS:gndblwq:1,2014-05-14T06:00:00Z,30.3571,-88.4629,0.0,28.6,2 
NERRS,ioos:station:NOAA.NERRS:gndblwq:1,2014-05-14T07:00:00Z,30.3571,-88.4629,0.0,28.5,2 
NERRS,ioos:station:NOAA.NERRS:gndblwq:1,2014-05-14T08:00:00Z,30.3571,-88.4629,0.0,28.5,2 
NERRS,ioos:station:NOAA.NERRS:gndblwq:1,2014-05-14T09:00:00Z,30.3571,-88.4629,0.0,28.2,2 
NERRS,ioos:station:NOAA.NERRS:gndblwq:1,2014-05-14T10:00:00Z,30.3571,-88.4629,0.0,28.0,2 
NERRS,ioos:station:NOAA.NERRS:gndblwq:1,2014-05-14T11:00:00Z,30.3571,-88.4629,0.0,28.0,2 
NERRS,ioos:station:NOAA.NERRS:gndblwq:1,2014-05-14T12:00:00Z,30.3571,-88.4629,0.0,27.6,2 
NERRS,ioos:station:NOAA.NERRS:gndblwq:1,2014-05-14T13:00:00Z,30.3571,-88.4629,0.0,27.5,2 
NERRS,ioos:station:NOAA.NERRS:gndblwq:1,2014-05-14T14:00:00Z,30.3571,-88.4629,0.0,27.3,2 
NERRS,ioos:station:NOAA.NERRS:gndblwq:1,2014-05-14T15:00:00Z,30.3571,-88.4629,0.0,27.2,2 
NERRS,ioos:station:NOAA.NERRS:gndblwq:1,2014-05-14T16:00:00Z,30.3571,-88.4629,0.0,27.1,2 
NERRS,ioos:station:NOAA.NERRS:gndblwq:1,2014-05-14T17:00:00Z,30.3571,-88.4629,0.0,27.2,2 
NERRS,ioos:station:NOAA.NERRS:gndblwq:1,2014-05-14T18:00:00Z,30.3571,-88.4629,0.0,27.3,2 
NERRS,ioos:station:NOAA.NERRS:gndblwq:1,2014-05-14T19:00:00Z,30.3571,-88.4629,0.0,27.2,2 
NERRS,ioos:station:NOAA.NERRS:gndblwq:1,2014-05-14T20:00:00Z,30.3571,-88.4629,0.0,26.9,2 
NERRS,ioos:station:NOAA.NERRS:gndblwq:1,2014-05-14T21:00:00Z,30.3571,-88.4629,0.0,26.9,2 
NERRS,ioos:station:NOAA.NERRS:gndblwq:1,2014-05-15T01:00:00Z,30.3571,-88.4629,0.0,26.0,2 
NERRS,ioos:station:NOAA.NERRS:gndblwq:1,2014-05-15T02:00:00Z,30.3571,-88.4629,0.0,25.5,2 
NERRS,ioos:station:NOAA.NERRS:gndblwq:1,2014-05-15T03:00:00Z,30.3571,-88.4629,0.0,25.1,2 
NERRS,ioos:station:NOAA.NERRS:gndblwq:1,2014-05-15T05:00:00Z,30.3571,-88.4629,0.0,23.5,2 
NERRS,ioos:station:NOAA.NERRS:gndblwq:1,2014-05-15T06:00:00Z,30.3571,-88.4629,0.0,23.5,2 
NERRS,ioos:station:NOAA.NERRS:gndblwq:1,2014-05-15T07:00:00Z,30.3571,-88.4629,0.0,23.2,2 
NERRS,ioos:station:NOAA.NERRS:gndblwq:1,2014-05-15T08:00:00Z,30.3571,-88.4629,0.0,23.3,2 
NERRS,ioos:station:NOAA.NERRS:gndblwq:1,2014-05-15T09:00:00Z,30.3571,-88.4629,0.0,23.2,2 
NERRS,ioos:station:NOAA.NERRS:gndblwq:1,2014-05-15T10:00:00Z,30.3571,-88.4629,0.0,23.0,2 
NERRS,ioos:station:NOAA.NERRS:gndblwq:1,2014-05-15T11:00:00Z,30.3571,-88.4629,0.0,22.3,2 
NERRS,ioos:station:NOAA.NERRS:gndblwq:1,2014-05-15T12:00:00Z,30.3571,-88.4629,0.0,21.3,2 
NERRS,ioos:station:NOAA.NERRS:gndblwq:1,2014-05-15T13:00:00Z,30.3571,-88.4629,0.0,21.6,2 
NERRS,ioos:station:NOAA.NERRS:gndblwq:1,2014-05-15T14:00:00Z,30.3571,-88.4629,0.0,22.5,2 
NERRS,ioos:station:NOAA.NERRS:gndblwq:1,2014-05-15T15:00:00Z,30.3571,-88.4629,0.0,22.5,2 
NERRS,ioos:station:NOAA.NERRS:gndblwq:1,2014-05-15T16:00:00Z,30.3571,-88.4629,0.0,22.4,2 
NERRS,ioos:station:NOAA.NERRS:gndblwq:1,2014-05-15T17:00:00Z,30.3571,-88.4629,0.0,22.6,2 
NERRS,ioos:station:NOAA.NERRS:gndblwq:1,2014-05-15T18:00:00Z,30.3571,-88.4629,0.0,23.0,2 
NERRS,ioos:station:NOAA.NERRS:gndblwq:1,2014-05-15T19:00:00Z,30.3571,-88.4629,0.0,23.0,2 
NERRS,ioos:station:NOAA.NERRS:gndblwq:1,2014-05-15T20:00:00Z,30.3571,-88.4629,0.0,23.9,2 
NERRS,ioos:station:NOAA.NERRS:gndblwq:1,2014-05-15T23:00:00Z,30.3571,-88.4629,0.0,23.7,2 
NERRS,ioos:station:NOAA.NERRS:gndblwq:1,2014-05-16T01:00:00Z,30.3571,-88.4629,0.0,22.1,2 
NERRS,ioos:station:NOAA.NERRS:gndblwq:1,2014-05-16T02:00:00Z,30.3571,-88.4629,0.0,22.2,2 
NERRS,ioos:station:NOAA.NERRS:gndblwq:1,2014-05-16T03:00:00Z,30.3571,-88.4629,0.0,21.7,2 
NERRS,ioos:station:NOAA.NERRS:gndblwq:1,2014-05-16T04:00:00Z,30.3571,-88.4629,0.0,21.2,2 
NERRS,ioos:station:NOAA.NERRS:gndblwq:1,2014-05-16T05:00:00Z,30.3571,-88.4629,0.0,21.0,2 
NERRS,ioos:station:NOAA.NERRS:gndblwq:1,2014-05-16T06:00:00Z,30.3571,-88.4629,0.0,20.8,2 
NERRS,ioos:station:NOAA.NERRS:gndblwq:1,2014-05-16T07:00:00Z,30.3571,-88.4629,0.0,21.1,2 
NERRS,ioos:station:NOAA.NERRS:gndblwq:1,2014-05-16T08:00:00Z,30.3571,-88.4629,0.0,21.2,2 
NERRS,ioos:station:NOAA.NERRS:gndblwq:1,2014-05-16T09:00:00Z,30.3571,-88.4629,0.0,20.7,2 